GFSGBSN_850_thetae_057.txt.gz
Theta_e
303 303 304 304 305 305 305 305 305 305 305 305 305 306 306 307 307 309 309 308 307 308 308 309 312 310 309 310 309 312 316 319 318 314 325 326 329 330 330 335 342 349 349 348 349 349 348
303 304 304 304 305 305 305 305 304 304 304 304 305 305 306 306 307 308 309 309 308 308 308 309 309 312 311 312 311 316 320 318 317 319 325 327 328 329 329 335 337 343 345 347 346 346 346
303 303 304 304 305 305 305 304 304 304 304 304 304 305 306 306 307 307 308 308 308 308 308 308 312 313 313 313 314 314 316 318 316 323 325 329 326 327 324 327 331 335 340 337 340 342 346
303 304 304 305 305 305 305 304 303 303 304 304 304 305 305 306 307 307 307 308 308 308 308 311 312 314 316 316 315 313 314 319 317 321 323 322 323 326 322 323 323 327 332 344 343 341 341
305 305 305 305 305 304 303 303 303 303 303 303 304 305 305 305 307 307 307 307 307 308 310 313 311 313 311 311 311 312 316 316 318 327 317 319 320 320 320 325 325 328 327 336 344 339 345
305 304 304 304 303 303 303 303 303 303 303 303 303 304 305 305 307 307 307 307 308 308 310 312 310 313 310 309 311 313 315 317 321 320 317 317 320 320 320 323 322 326 327 335 343 343 342
303 303 303 303 303 302 302 303 303 303 303 303 303 304 305 306 308 309 308 308 309 309 308 308 309 308 309 311 312 312 318 321 321 316 316 317 318 321 319 320 322 327 329 329 340 342 344
302 302 302 302 302 302 302 303 303 303 303 303 303 304 307 309 309 309 309 309 310 309 309 308 309 308 308 309 310 310 316 321 323 322 317 317 317 318 318 317 320 323 327 332 332 335 342
302 302 302 302 302 302 302 302 302 303 303 302 302 303 307 310 308 309 309 310 310 309 307 308 308 308 308 309 310 309 312 313 322 322 320 319 319 317 317 317 319 321 323 327 331 333 336
302 302 301 302 302 302 302 302 302 302 302 303 302 302 306 310 307 310 310 310 310 309 309 310 309 308 309 309 310 309 312 312 315 324 321 322 320 318 318 318 318 319 320 324 326 328 339
307 303 301 301 301 301 301 302 302 304 306 307 304 302 305 310 310 310 310 310 309 307 309 309 309 307 308 309 309 310 313 315 316 317 321 324 322 321 320 319 318 319 319 318 323 328 329
317 306 303 301 301 301 302 302 304 308 309 309 308 303 305 311 310 310 310 310 308 310 309 309 309 307 309 309 309 309 314 314 316 319 320 319 321 323 322 320 319 319 321 320 320 322 330
321 310 303 301 301 301 301 303 309 310 308 308 308 303 309 310 310 311 310 308 310 310 309 308 309 307 308 309 309 311 315 315 317 318 320 320 320 320 322 323 321 320 321 324 325 322 328
321 316 303 300 300 300 303 309 309 310 308 308 306 308 309 310 310 311 311 310 310 310 308 307 308 307 308 308 308 310 312 313 313 317 320 321 319 320 321 323 324 322 323 323 326 323 321
321 315 301 300 300 302 308 309 309 309 308 308 306 310 309 309 309 310 311 312 310 309 309 309 308 308 307 308 308 308 310 313 314 312 314 321 321 318 319 319 322 324 324 323 323 326 326
320 307 300 300 301 308 308 309 309 308 308 308 305 309 309 309 309 309 311 309 310 309 309 308 309 308 309 308 308 308 308 313 314 311 312 314 314 317 318 319 321 323 324 325 325 324 326
314 303 300 301 307 308 308 308 309 308 307 306 304 310 307 310 310 309 311 309 309 308 309 309 308 308 308 308 308 308 308 311 310 311 312 314 312 313 316 322 323 323 324 325 326 326 326
307 302 302 306 308 308 308 308 308 307 307 306 304 309 307 310 309 305 308 306 306 308 309 309 308 308 308 307 308 308 308 309 310 311 312 313 313 313 314 318 318 319 323 325 328 329 329
304 303 307 308 308 308 308 308 307 307 307 306 305 305 307 309 310 308 306 306 307 308 309 309 308 308 307 307 308 308 309 311 311 311 312 314 313 313 310 314 318 320 319 321 323 326 331
304 308 308 308 308 308 307 307 306 307 307 306 305 308 306 306 304 307 305 307 308 307 309 308 308 308 308 308 308 308 309 310 310 310 311 312 312 312 313 312 313 317 317 317 319 326 329
308 308 308 308 308 308 307 306 306 307 307 306 305 306 304 308 308 306 306 306 307 308 308 308 309 308 309 309 309 308 308 307 309 310 311 311 310 309 309 309 310 312 313 316 317 322 326
308 308 308 309 309 307 306 306 307 308 307 307 306 307 305 305 305 306 307 307 308 308 308 308 308 308 309 310 310 309 308 308 309 310 311 311 309 310 309 309 311 312 313 314 316 318 320
308 309 309 308 307 306 306 307 307 307 307 306 305 306 306 306 306 308 309 308 309 309 307 307 308 308 307 308 308 308 308 307 307 308 310 310 310 309 308 313 314 316 315 316 318 320 320
309 309 308 307 307 308 308 309 308 307 306 306 306 306 306 308 307 308 308 309 309 309 308 306 307 307 307 307 307 307 307 307 308 307 307 308 308 310 309 310 317 317 320 320 321 320 320
309 308 308 310 311 311 311 310 309 307 306 307 307 306 307 308 308 308 309 309 308 307 307 306 307 307 307 307 308 308 307 307 309 308 308 308 309 309 309 315 319 322 320 321 323 321 317
308 309 311 311 311 311 311 310 308 307 307 307 308 307 307 307 309 307 308 308 308 307 307 306 307 307 306 307 308 309 310 308 308 308 308 308 309 311 309 315 322 319 315 314 318 325 315
310 312 311 311 311 312 311 309 308 307 307 307 308 308 307 307 308 308 309 308 307 306 306 305 307 307 305 308 310 310 311 308 311 309 308 309 309 310 310 312 315 311 310 313 325 322 314
311 311 311 311 312 311 311 310 308 308 308 308 308 308 308 308 309 308 308 307 307 307 308 307 308 306 306 308 309 309 311 310 311 310 309 309 310 311 310 313 315 308 310 318 315 313 313
311 311 311 312 312 312 311 309 309 308 308 308 308 307 308 308 309 309 309 306 306 307 307 307 306 306 306 306 307 307 309 308 312 314 308 314 312 314 314 314 309 309 310 311 313 313 312

GFSGBSN_850_thetae_060.txt.gz
Theta_e
304 304 304 305 305 305 305 304 304 304 304 304 304 305 306 306 307 307 308 308 309 309 308 308 309 312 312 317 314 314 316 319 321 319 331 332 332 332 332 334 336 344 347 350 350 349 349
303 304 304 305 305 305 304 304 303 303 304 304 304 305 305 306 307 307 307 308 308 308 308 308 311 312 315 317 314 315 321 320 321 321 330 328 328 328 328 330 333 337 338 344 348 349 348
305 305 305 305 305 304 304 303 303 303 304 303 304 305 305 305 306 307 307 307 308 308 308 311 313 314 318 317 315 315 324 325 326 324 327 325 326 326 325 329 331 332 339 339 343 348 350
305 304 304 304 304 303 303 303 303 303 304 304 303 304 305 306 306 307 307 307 308 308 310 312 315 318 317 313 315 316 319 324 329 328 325 327 324 326 324 325 324 328 331 337 343 347 347
303 304 304 303 303 303 303 303 303 303 303 303 303 304 304 307 306 307 308 308 308 309 312 311 316 319 315 312 313 312 315 323 326 322 324 323 322 325 326 325 324 325 329 333 350 346 348
302 302 302 302 302 302 303 303 303 303 303 303 303 303 304 309 307 308 309 308 308 309 310 312 311 318 313 313 312 312 316 322 325 324 319 320 321 324 324 325 326 326 328 332 345 347 348
303 303 302 302 302 302 302 302 302 303 303 303 303 303 304 310 308 309 309 311 315 313 313 311 312 312 312 312 313 315 320 323 323 325 322 319 323 323 324 324 325 327 329 330 339 346 348
312 305 303 302 302 302 302 302 302 303 303 305 305 304 304 310 309 309 311 312 311 310 313 310 309 310 310 311 314 314 319 324 322 324 322 321 321 323 323 323 323 324 329 332 332 341 347
320 312 306 303 302 301 302 302 302 304 308 309 309 305 303 310 308 310 310 310 310 309 313 312 310 311 310 311 313 312 317 322 325 324 322 322 323 321 321 322 322 323 324 329 332 335 340
322 320 310 305 302 301 301 301 303 308 309 309 308 308 303 310 309 310 311 310 310 309 314 313 312 310 311 311 313 312 315 317 322 326 324 323 323 322 321 321 322 323 322 323 329 333 339
322 321 315 308 301 301 301 302 308 310 310 308 308 307 303 310 310 312 310 310 309 308 313 312 312 309 311 313 312 313 315 317 319 321 326 325 324 324 322 322 322 322 322 322 323 330 333
322 321 315 306 301 301 301 308 309 310 309 307 308 304 305 310 311 311 311 310 308 314 313 312 311 311 313 312 312 313 315 316 318 320 322 324 325 325 325 324 323 322 322 322 322 322 329
322 320 313 302 300 301 307 309 309 309 308 307 307 306 309 310 311 311 311 310 315 314 312 312 312 312 312 313 312 314 315 316 317 318 319 321 322 324 324 325 325 323 323 326 325 323 321
320 318 305 300 301 307 309 309 308 308 307 307 306 308 309 309 310 311 311 315 316 314 313 311 311 312 312 312 312 312 314 315 316 316 317 320 321 321 324 326 326 324 325 326 328 326 324
320 311 302 301 306 309 308 308 308 306 306 305 305 309 311 310 310 310 313 318 316 314 312 312 312 312 313 311 312 312 313 314 315 315 316 319 319 322 322 323 326 327 326 326 326 327 328
314 305 301 306 309 309 308 308 306 305 305 307 304 310 310 311 310 310 316 314 314 312 312 312 313 312 313 312 312 312 312 314 315 313 313 316 316 318 322 322 323 326 327 327 327 328 330
308 303 306 309 309 308 308 307 305 306 309 308 307 314 309 310 311 314 317 315 313 311 311 313 313 313 313 312 312 313 312 312 313 313 312 314 314 315 315 322 323 324 326 327 327 327 329
305 307 309 309 308 308 307 306 306 308 310 309 309 314 309 310 314 313 315 311 308 311 311 311 312 312 312 312 312 312 312 312 311 312 312 313 314 315 315 317 323 323 325 327 329 330 328
308 309 308 308 309 308 307 306 307 308 309 308 310 310 310 312 315 314 311 311 310 311 312 311 311 311 310 311 311 311 311 311 311 311 312 314 312 314 314 314 316 319 323 326 326 329 331
309 308 308 309 309 307 306 307 308 309 309 308 311 315 311 310 310 311 311 311 311 309 311 310 311 311 311 312 311 311 311 310 311 310 312 311 311 312 314 314 314 319 323 323 325 329 330
309 309 309 309 307 306 307 308 309 310 309 309 310 311 309 313 310 311 311 311 311 310 310 309 311 311 311 311 311 311 310 310 310 310 310 313 312 312 312 311 311 312 314 317 320 325 328
309 309 309 307 307 307 308 309 310 311 309 310 312 311 310 308 309 309 310 310 310 310 308 310 310 310 311 312 311 312 311 311 311 310 312 312 313 311 311 310 310 310 312 314 316 321 323
309 308 308 309 310 311 311 311 310 310 309 309 308 308 310 308 310 311 311 310 310 310 309 309 309 310 309 309 309 309 309 309 310 311 312 311 312 311 311 310 311 313 315 317 318 320 322
308 309 311 311 311 311 311 311 309 307 307 309 309 309 310 311 311 311 310 310 309 309 310 309 307 308 307 309 308 308 308 308 309 309 308 311 312 311 311 311 311 311 314 317 319 320 322
309 311 311 311 311 311 312 311 308 307 307 309 308 309 309 312 310 310 309 309 308 309 309 308 308 309 309 309 310 310 310 310 310 309 310 309 311 311 311 311 311 315 320 320 321 321 323
311 311 311 311 312 312 311 310 308 307 307 308 308 307 307 312 312 310 309 309 309 309 311 308 308 308 308 309 311 311 313 311 311 310 309 309 311 312 311 312 315 318 315 314 318 328 322
311 311 311 312 312 312 311 310 308 307 308 308 308 308 310 312 311 310 310 309 309 309 310 309 309 309 307 309 311 313 313 312 312 312 311 311 311 313 312 312 313 315 313 313 324 324 320
311 312 312 312 313 312 311 310 308 308 308 308 308 308 310 312 311 310 310 309 309 309 310 309 311 309 308 310 311 312 312 311 312 311 311 311 313 313 312 313 314 313 314 315 314 315 315
312 312 312 313 313 312 311 310 309 309 308 308 308 308 308 309 312 310 310 309 309 309 308 310 310 309 306 307 309 309 311 310 311 315 311 312 311 313 312 314 312 311 311 311 311 314 315

GFSGBSN_850_thetae_063.txt.gz
Theta_e
305 305 305 305 305 304 304 304 303 304 304 304 304 304 305 306 306 307 307 307 308 308 308 308 310 312 313 322 319 319 317 319 318 315 334 337 337 337 337 338 340 345 346 350 351 350 352
305 305 304 304 304 304 303 303 303 304 304 304 304 304 305 305 306 307 307 307 308 308 308 309 313 312 320 323 317 318 325 320 325 320 330 334 333 334 333 334 336 338 341 347 350 350 350
304 304 304 304 303 303 303 303 303 303 304 304 304 304 304 305 306 307 308 308 308 308 309 312 314 318 322 320 318 319 325 327 327 322 328 332 331 332 329 330 330 334 339 341 345 350 350
303 302 303 303 303 303 303 303 303 303 303 304 304 305 304 305 307 307 308 308 308 309 312 312 317 325 321 316 318 318 324 326 325 324 326 331 328 327 329 328 328 333 335 341 343 347 350
305 303 303 303 302 302 302 302 303 303 303 304 304 305 305 305 308 308 309 309 308 309 312 312 320 325 319 315 316 316 323 326 329 329 327 328 327 327 328 328 328 328 334 337 339 341 347
319 309 306 304 303 302 302 302 302 303 303 305 306 307 305 305 309 308 309 310 309 309 311 316 320 322 316 316 316 316 317 324 330 325 327 327 327 328 330 330 328 328 330 333 338 348 348
322 320 311 307 305 303 302 302 302 303 305 309 309 309 306 305 309 309 313 315 320 319 317 316 316 315 315 315 316 320 322 325 327 325 325 325 327 326 328 329 328 328 329 332 336 348 349
323 321 320 311 307 302 301 302 302 305 309 310 309 308 307 306 308 310 313 315 313 314 317 313 313 314 313 315 317 319 324 324 326 330 326 324 325 326 326 327 326 326 328 330 333 340 348
322 321 321 318 310 302 301 301 305 310 310 310 309 307 307 306 308 313 313 313 313 313 316 315 314 314 314 314 317 317 320 325 325 328 329 327 326 325 326 326 326 326 327 329 333 334 345
322 322 321 317 304 301 301 305 310 310 309 309 307 307 305 308 310 313 315 313 313 313 318 316 314 313 313 314 316 315 318 321 325 327 325 326 326 325 325 325 326 327 326 326 329 335 339
322 322 321 312 301 301 304 309 310 309 308 307 307 307 304 307 312 315 313 313 312 312 319 315 315 312 313 315 316 316 316 319 321 323 326 326 325 325 325 325 325 326 326 326 325 327 335
321 321 318 304 300 304 309 309 308 308 307 306 307 305 308 313 314 313 313 313 312 316 316 315 314 314 315 315 315 315 316 316 318 321 322 325 326 326 325 326 325 326 325 326 326 325 327
321 319 308 301 305 309 309 308 308 306 305 305 305 307 309 312 314 313 313 314 318 317 317 316 316 315 316 316 316 316 318 318 318 320 319 320 322 325 326 326 326 326 327 327 327 327 326
318 310 303 305 309 309 308 307 306 305 304 304 304 307 313 312 312 313 314 319 319 318 317 315 315 315 315 316 316 316 317 317 319 318 319 320 322 322 323 326 328 327 327 329 331 329 328
311 305 306 309 309 309 308 305 305 307 310 311 305 311 313 313 313 312 316 321 321 319 316 316 316 316 316 315 314 315 316 317 318 318 318 318 319 323 323 323 326 328 328 327 329 330 331
306 308 309 309 309 309 306 305 308 310 311 311 309 312 313 313 313 314 319 318 320 316 316 316 317 317 317 317 315 316 317 317 317 316 315 317 319 322 321 323 325 326 328 328 328 331 332
308 309 309 309 309 308 306 307 309 310 311 308 312 317 314 314 314 317 321 320 317 315 314 316 317 317 317 317 317 316 317 316 315 316 315 316 317 318 318 321 324 324 327 329 330 329 331
309 309 309 309 309 307 307 308 309 311 312 313 314 319 314 314 319 317 320 316 311 315 314 315 315 316 316 316 317 316 316 316 314 314 315 317 316 317 318 319 319 320 323 323 330 332 330
309 309 309 309 307 306 307 309 310 311 310 314 315 316 314 315 321 318 315 315 313 315 315 315 315 314 315 314 314 315 315 314 313 314 314 316 316 317 317 317 318 318 322 325 326 327 332
309 309 308 307 307 309 309 311 311 312 311 313 316 320 316 314 314 316 316 315 315 312 313 313 314 313 314 314 314 314 314 313 312 312 312 312 316 317 317 318 317 319 318 322 325 328 328
309 308 308 309 310 311 312 312 312 311 312 315 315 315 314 317 315 315 315 314 314 314 312 312 313 313 313 314 314 313 313 313 312 311 312 313 314 314 314 315 315 315 317 321 323 327 330
308 309 310 311 312 312 312 312 312 311 313 314 316 316 313 314 312 313 313 313 311 311 312 313 313 313 312 314 313 315 313 313 313 313 313 313 313 314 316 315 314 314 315 316 320 323 325
309 311 311 311 311 312 312 312 312 311 313 313 312 312 314 311 312 313 313 313 312 311 311 311 311 312 312 312 311 312 311 311 311 311 313 314 316 314 315 314 314 314 314 314 316 319 321
311 311 311 311 311 312 312 312 311 309 312 313 312 313 315 315 314 313 312 311 311 311 312 310 311 310 311 310 310 310 310 310 310 311 310 314 315 315 317 314 315 315 314 316 317 317 319
311 311 311 311 312 312 312 312 309 308 311 313 312 313 314 316 314 313 312 311 311 311 311 311 309 310 310 310 311 313 314 312 312 311 311 311 312 315 314 314 313 314 320 322 323 324 319
311 312 312 312 312 312 313 311 308 308 309 313 310 312 314 316 315 312 313 312 313 314 313 311 310 311 310 311 312 314 315 315 314 313 312 311 312 314 312 313 314 315 319 317 321 325 326
311 312 312 313 312 312 312 309 308 309 309 313 312 312 315 315 313 313 313 314 312 312 312 311 311 311 310 312 314 314 315 312 313 313 314 315 315 315 313 314 313 313 316 315 323 323 320
312 313 313 314 312 311 312 309 309 308 308 314 311 310 314 316 314 314 313 313 312 311 314 312 312 312 311 312 312 313 314 314 312 313 312 314 315 315 315 314 314 316 316 316 319 316 317
312 312 313 314 314 311 311 309 309 309 309 312 315 309 309 313 315 314 314 312 311 311 312 312 312 311 308 309 310 310 312 312 312 315 312 312 313 315 314 313 314 314 313 314 314 315 314

GFSGBSN_850_thetae_069.txt.gz
Theta_e
306 304 303 304 304 304 303 303 303 303 304 304 305 305 306 307 307 306 306 307 308 308 308 308 308 311 312 322 320 322 319 317 319 317 315 328 336 337 338 340 341 342 343 344 347 351 354
322 318 309 307 307 307 308 308 307 305 304 304 304 305 307 307 308 306 307 307 308 308 308 309 312 312 312 323 320 320 323 323 315 318 315 328 339 339 339 339 338 339 340 341 347 351 350
323 323 322 320 314 311 311 309 306 304 303 304 305 307 309 309 308 306 307 308 309 308 309 310 315 320 325 327 320 320 322 326 322 320 317 337 339 340 338 336 337 336 331 332 340 351 352
322 323 323 321 321 319 317 312 306 303 303 304 307 309 310 309 309 306 307 308 309 308 311 312 315 319 327 320 318 320 321 326 329 325 320 331 332 335 336 334 333 331 327 329 332 341 351
322 322 322 322 321 319 316 307 303 302 305 308 310 310 310 309 309 306 307 309 312 308 312 312 317 329 330 319 318 319 320 326 329 327 323 322 324 331 333 328 328 330 327 329 330 333 342
322 322 322 322 321 318 306 302 302 306 310 310 310 309 309 309 308 306 310 313 314 311 311 315 316 324 324 320 318 317 321 325 328 327 325 323 326 329 329 325 328 329 326 326 328 333 336
321 322 322 321 320 310 302 302 308 310 310 309 308 307 307 307 307 308 315 317 319 321 314 325 324 324 319 317 318 319 318 325 328 326 325 328 326 329 329 326 326 327 329 328 327 330 333
322 322 321 320 311 302 304 309 310 308 307 307 306 306 306 306 306 311 315 316 315 315 315 317 318 319 316 316 318 321 322 321 328 330 329 329 328 328 329 328 328 327 327 328 328 327 341
321 320 317 309 303 307 309 309 308 306 306 305 305 305 306 306 310 314 315 316 315 315 315 316 317 316 316 315 317 322 324 324 326 329 327 324 328 329 330 329 326 325 326 326 327 326 338
320 314 307 305 309 309 309 308 306 304 304 304 304 305 305 309 315 317 317 316 316 316 314 318 316 315 315 315 315 319 320 320 324 325 326 326 325 325 328 328 326 322 325 326 326 324 324
312 307 308 309 309 309 308 307 305 306 308 309 306 305 304 306 312 316 315 315 315 315 319 317 315 315 315 315 317 317 317 318 321 323 324 325 326 327 327 326 324 324 325 325 326 324 323
308 309 310 310 309 309 308 306 308 309 310 311 310 305 309 316 317 317 315 315 316 315 319 316 316 315 315 315 316 317 318 317 318 318 318 320 322 322 324 326 325 325 324 323 323 323 323
309 310 310 309 309 308 307 308 309 310 312 313 311 305 309 314 316 315 315 316 317 317 318 316 315 315 314 315 316 317 317 316 315 316 317 318 317 318 321 324 324 324 323 321 322 323 324
310 310 309 309 308 307 307 309 310 312 313 313 309 308 315 314 315 315 316 317 322 320 318 317 316 316 316 316 316 317 317 316 317 317 317 317 318 317 320 323 326 324 321 321 325 324 324
310 309 308 308 307 308 309 310 312 313 313 313 310 314 316 316 316 316 316 322 319 319 318 318 318 316 316 316 316 316 317 316 318 317 318 316 318 318 319 320 323 325 324 323 322 323 324
309 308 308 309 310 311 312 312 312 313 313 313 313 316 317 317 317 316 318 321 318 317 317 318 318 318 318 318 317 316 316 317 318 317 316 316 315 317 318 318 320 322 323 321 321 324 325
308 308 310 311 311 312 312 312 313 312 313 314 318 320 317 316 318 318 320 320 318 317 317 317 317 318 317 318 318 318 318 316 317 316 316 316 316 315 316 317 317 318 319 321 321 322 324
308 310 311 311 311 312 312 312 312 314 315 317 319 320 317 318 320 321 317 316 316 316 316 317 317 317 317 316 317 317 318 316 316 315 315 315 314 314 315 316 317 316 316 316 321 323 325
309 311 311 311 311 312 313 313 311 315 316 317 319 320 318 318 318 318 318 317 314 315 315 315 316 315 315 315 316 316 316 316 315 315 315 313 313 314 315 314 316 317 317 315 314 317 319
310 311 311 311 312 313 313 312 313 315 315 317 320 319 318 316 317 317 318 317 316 315 314 314 315 315 314 314 314 315 315 315 315 315 315 314 312 312 313 314 313 315 316 316 315 314 316
310 311 311 312 313 313 313 312 315 316 316 317 319 317 315 315 316 315 315 315 315 314 314 314 316 315 314 315 314 314 314 314 315 317 314 312 311 311 311 312 313 313 315 316 316 315 316
310 311 312 313 313 314 312 312 315 316 317 317 316 318 315 315 315 315 315 315 314 313 314 313 314 313 313 313 313 313 312 312 313 314 315 314 314 313 315 314 313 313 314 315 316 316 316
310 312 313 313 313 314 310 310 312 314 317 317 317 317 317 315 315 314 314 314 313 313 313 313 312 312 313 313 312 312 311 311 311 311 312 312 313 314 314 314 314 314 313 314 314 315 316
310 312 313 313 313 314 310 310 312 315 316 317 317 318 317 317 316 315 314 314 314 313 314 313 312 312 312 311 311 312 312 311 312 311 312 310 312 312 313 314 314 312 313 314 314 315 322
310 312 313 314 312 313 310 310 311 313 315 315 317 319 319 317 316 316 316 315 315 313 313 313 313 312 312 312 312 312 314 315 315 313 312 311 312 313 313 313 312 312 311 318 319 319 320
310 312 313 314 312 312 310 310 312 314 315 314 314 318 320 320 316 315 316 315 315 314 315 314 313 313 312 312 313 315 317 315 315 313 313 312 312 314 313 314 315 316 316 316 316 317 317
310 312 313 314 314 312 310 310 311 314 315 314 315 314 319 319 316 315 315 316 314 315 315 313 313 312 311 313 315 315 315 311 313 313 314 313 313 314 313 315 314 315 315 315 316 316 316
310 313 314 314 314 312 311 309 310 311 316 317 318 317 315 319 317 316 316 314 314 314 316 314 314 312 312 313 312 313 312 310 311 312 311 314 316 314 314 314 314 313 315 316 314 313 312
310 313 315 314 314 314 312 310 309 310 314 318 320 318 317 318 318 318 317 316 314 314 314 313 312 312 310 311 310 311 310 309 309 310 309 312 309 310 313 315 310 309 311 311 310 309 310

GFSGBSN_850_thetae_072.txt.gz
Theta_e
323 323 322 321 318 314 314 316 316 313 309 306 304 305 306 308 308 308 306 307 307 308 308 308 308 311 312 315 315 321 319 319 320 318 318 320 325 331 332 335 338 339 340 343 343 352 355
322 322 323 322 321 321 320 319 318 313 308 305 304 306 307 309 309 309 307 307 307 308 308 308 310 314 312 320 320 320 320 322 317 319 318 317 332 333 337 334 336 339 338 337 336 355 354
322 322 322 322 323 321 320 317 310 306 303 304 306 308 309 310 310 309 308 307 308 309 308 310 313 319 323 322 320 320 319 324 323 318 317 320 333 331 338 334 337 336 332 328 349 352 351
321 321 321 322 322 321 318 307 303 303 306 309 310 310 310 310 309 309 308 307 308 311 308 311 314 320 322 322 320 320 319 322 327 326 317 326 329 332 332 334 331 328 326 326 335 351 351
322 322 322 321 321 319 309 303 303 308 310 310 309 309 309 308 308 309 307 308 311 313 309 312 313 327 326 322 318 317 319 320 324 328 323 319 322 321 323 329 324 324 329 329 327 348 352
322 321 320 320 316 307 303 307 310 309 308 307 307 307 306 307 307 307 308 314 314 316 310 316 316 322 321 319 317 318 318 320 327 328 326 323 321 321 323 324 326 328 328 324 325 326 349
321 320 317 309 305 307 309 309 308 306 305 305 305 305 305 305 306 306 315 316 316 318 314 315 323 319 320 317 318 317 322 322 327 328 322 323 322 324 326 326 325 325 325 325 326 327 326
317 311 307 307 309 309 308 307 306 304 304 304 304 304 305 306 306 308 313 316 315 314 314 315 316 316 319 317 316 318 320 323 325 323 323 325 325 324 326 327 327 326 325 324 324 327 345
309 308 309 309 309 308 308 307 306 307 309 309 309 305 305 306 311 314 316 315 315 315 313 315 315 317 318 315 315 322 321 321 325 327 326 326 327 327 327 327 328 326 325 325 324 339 346
308 309 310 309 309 308 307 306 308 309 310 310 310 307 305 312 316 316 315 315 315 315 309 314 315 315 315 315 315 320 322 320 323 326 327 324 324 324 326 327 326 325 322 324 324 322 322
309 310 309 309 308 307 306 307 309 309 311 312 311 307 305 311 315 315 315 315 315 314 316 316 313 314 315 314 316 316 317 317 319 320 319 320 324 325 325 324 324 326 325 322 323 321 321
310 309 308 308 307 307 307 308 310 311 313 313 312 306 307 315 316 315 314 315 316 311 317 314 314 314 313 314 315 317 317 317 317 316 316 315 318 321 322 324 323 324 322 319 318 318 320
309 308 307 308 309 310 311 311 312 313 313 313 311 306 309 314 315 315 315 316 313 314 315 314 313 312 312 313 314 315 316 315 313 313 315 316 317 316 318 319 321 322 317 318 321 319 319
308 308 309 311 311 312 312 312 313 312 312 313 309 314 315 316 316 315 316 313 318 318 316 316 315 313 312 313 314 315 315 312 315 313 312 315 316 315 316 316 320 323 317 318 322 321 321
308 310 311 311 311 312 312 312 312 312 313 312 314 315 316 317 316 316 316 316 315 315 315 315 314 314 314 314 314 315 314 313 315 313 314 313 316 316 317 316 316 322 322 318 318 318 319
309 310 311 311 311 312 313 313 312 314 314 316 316 317 317 316 316 316 313 314 315 315 315 314 315 315 315 315 315 313 314 314 315 314 313 314 314 314 317 315 315 313 315 319 315 322 323
309 310 311 311 312 313 313 312 314 316 316 318 320 319 317 317 318 317 311 315 314 315 315 314 314 313 313 313 314 313 313 314 314 314 312 310 311 313 314 312 314 313 313 312 315 317 321
310 311 311 312 313 313 313 311 315 317 318 319 319 312 317 318 314 312 310 313 314 313 314 313 313 312 313 313 313 313 314 314 315 314 314 311 308 311 313 313 314 314 312 309 312 314 317
310 311 312 313 314 314 311 313 315 316 318 318 319 318 316 317 311 310 312 313 313 312 313 312 313 312 311 310 313 313 313 314 315 313 312 312 308 310 311 311 310 312 311 311 310 308 314
310 311 313 313 314 313 311 314 316 316 317 318 317 311 315 315 314 311 313 312 313 313 313 313 312 312 310 311 309 312 313 313 315 316 316 312 306 309 310 311 310 311 311 311 310 310 311
310 311 313 313 314 312 311 313 315 317 317 317 316 312 314 311 311 310 310 311 313 312 312 312 312 312 310 311 310 311 310 310 312 314 313 308 308 310 310 312 313 313 313 312 311 312 314
310 311 313 313 314 311 310 311 312 313 316 317 317 317 315 313 313 310 309 310 312 312 311 311 311 312 309 310 311 311 309 308 310 309 310 309 311 311 312 313 312 312 312 313 313 313 313
309 311 313 313 314 310 310 312 313 315 316 316 317 318 316 312 310 309 310 312 312 312 312 312 312 310 310 311 311 311 311 310 309 308 307 308 309 310 311 312 311 310 310 312 312 312 319
309 311 312 314 313 310 311 311 313 314 316 317 318 319 315 311 311 311 313 314 313 313 313 312 312 311 311 311 312 311 311 311 310 309 307 307 306 308 308 310 313 309 309 311 314 319 318
309 311 312 314 312 310 311 312 313 314 314 316 318 319 319 310 314 314 314 313 314 313 313 312 313 312 312 311 308 308 310 310 311 310 308 306 306 308 309 310 310 311 310 310 316 317 316
310 311 312 314 312 311 310 313 314 314 314 315 316 318 320 316 312 314 314 314 310 310 311 313 313 313 311 308 307 311 311 312 311 311 308 307 306 310 309 309 312 310 314 314 314 317 314
310 311 313 314 314 311 310 310 311 313 314 315 314 315 319 318 316 315 313 313 314 313 309 312 312 311 310 306 306 310 305 309 306 311 310 307 309 308 309 311 312 311 311 314 314 312 311
310 311 313 314 314 314 311 310 310 311 315 318 317 317 317 318 318 316 316 314 313 314 309 313 309 309 306 305 304 301 305 309 309 309 309 309 310 310 308 309 312 308 312 313 310 309 309
310 311 313 315 315 314 313 311 309 310 311 310 316 318 317 318 318 317 317 317 315 313 314 312 310 310 309 304 303 299 301 303 302 308 306 310 306 303 309 314 308 309 308 307 306 306 306

GFSGBSN_850_thetae_075.txt.gz
Theta_e
322 322 322 322 322 322 320 320 317 312 307 305 305 306 307 307 309 309 309 308 306 307 308 307 308 310 312 312 313 321 319 317 316 317 317 321 324 329 330 332 335 339 339 339 340 343 354
321 321 322 321 322 322 321 319 309 304 303 306 308 309 309 309 309 310 309 309 306 307 308 307 308 314 312 312 320 320 320 320 318 318 318 319 327 331 332 333 334 338 337 337 337 351 350
322 322 321 321 321 321 320 313 305 304 308 309 309 309 309 309 309 309 309 308 306 307 309 309 311 316 320 318 321 320 319 325 316 319 318 317 329 332 335 335 335 335 336 329 351 353 352
321 321 320 319 318 313 307 305 308 309 309 308 307 307 307 307 308 308 308 307 306 309 310 310 313 317 320 324 323 322 320 322 324 317 318 316 324 327 329 332 329 327 324 326 350 350 348
320 318 315 309 306 307 309 309 308 306 305 305 304 305 305 305 306 307 308 307 309 312 312 310 313 321 325 324 321 317 319 320 324 324 319 317 317 324 322 324 323 322 329 329 328 349 350
314 310 307 307 309 309 308 307 306 305 304 304 304 304 304 305 305 306 307 313 316 314 313 311 315 321 318 319 318 319 320 319 320 325 323 321 320 318 320 323 329 328 328 325 325 348 351
308 308 309 309 308 308 308 307 306 307 308 309 308 307 305 305 306 307 314 315 315 316 314 313 318 316 320 318 317 317 317 318 326 326 322 321 320 322 323 324 326 326 325 325 325 325 325
309 309 309 309 308 308 307 306 307 309 309 309 309 308 305 305 306 313 315 315 315 314 313 314 315 315 318 318 317 318 317 324 326 323 321 322 322 322 324 326 326 327 326 325 324 331 335
309 309 308 308 307 307 306 307 308 309 310 311 311 308 305 310 314 315 315 315 315 314 312 314 314 315 317 316 315 318 318 321 323 324 322 324 327 326 326 326 327 326 325 325 325 330 347
309 308 307 307 308 308 309 309 310 311 312 313 312 307 307 314 315 315 314 315 315 314 308 313 314 315 316 315 314 318 320 322 322 325 325 325 325 326 325 326 325 326 323 325 324 320 321
308 308 309 310 311 311 312 312 312 312 313 313 312 307 306 313 315 314 314 315 315 314 314 316 313 314 315 314 316 316 318 319 319 320 320 324 322 323 322 322 324 325 324 322 322 320 320
308 309 310 311 311 311 312 312 312 312 312 313 311 306 309 314 315 314 314 316 315 311 315 314 313 313 312 313 314 316 317 317 316 315 315 315 317 321 322 323 322 323 323 317 314 315 318
309 310 310 311 311 312 312 312 312 312 313 311 307 310 311 314 314 315 316 316 312 314 314 316 312 312 311 312 313 315 315 312 313 312 314 315 316 314 315 317 318 317 316 318 319 318 319
309 310 310 311 312 313 313 312 313 314 313 312 314 315 315 316 316 316 316 311 315 316 314 314 315 311 313 312 313 313 312 311 313 310 311 314 316 314 315 315 316 321 316 317 321 319 320
310 310 311 312 312 313 313 311 315 315 314 315 316 316 317 316 316 316 316 311 313 314 314 314 314 314 314 314 312 313 312 312 313 311 313 314 315 314 316 314 314 318 318 317 315 315 319
310 311 312 313 313 313 311 313 316 317 317 318 318 317 316 317 317 317 312 313 313 313 313 312 313 313 313 313 314 311 312 313 314 312 311 313 314 313 314 314 313 312 312 316 313 320 323
310 311 313 313 314 313 311 314 316 317 318 318 317 317 316 317 317 315 310 312 313 313 314 313 312 312 312 312 312 312 312 314 313 313 311 310 310 312 311 312 312 311 311 309 311 314 318
310 311 313 313 314 312 312 315 315 317 318 318 317 311 315 316 314 307 307 310 313 312 313 312 311 311 311 310 310 312 313 312 314 313 313 309 306 310 312 309 311 310 310 307 310 313 311
310 311 313 313 314 311 312 315 315 316 317 318 317 315 314 317 310 308 311 312 312 311 311 311 311 310 309 310 312 311 313 313 315 313 311 311 308 311 310 308 308 309 309 309 306 305 310
309 311 313 313 313 310 311 312 313 316 317 317 315 309 314 314 312 309 311 310 312 312 311 311 310 310 309 309 308 311 311 312 312 316 315 311 304 308 310 311 309 312 312 309 308 309 310
309 311 313 313 312 310 311 312 313 315 317 316 314 311 311 309 310 309 308 310 312 312 311 311 311 310 309 309 309 310 309 309 310 310 311 305 308 310 309 311 312 312 312 312 310 311 312
309 311 312 313 311 311 312 313 314 315 317 317 317 316 312 310 310 309 307 310 312 311 310 311 310 310 309 309 310 311 309 309 309 308 307 306 309 311 310 311 310 311 310 311 311 311 312
310 310 312 313 311 311 312 313 314 316 316 317 317 315 314 310 308 308 309 311 312 311 311 311 311 309 310 310 310 310 310 310 309 309 307 306 307 307 310 310 309 307 309 310 311 316 315
310 310 312 314 311 311 312 313 313 314 316 318 317 315 314 310 309 310 312 313 312 312 311 311 311 310 311 311 311 310 309 309 308 308 307 305 305 305 307 308 311 306 308 311 318 318 317
310 310 312 314 312 310 312 314 313 314 316 317 318 318 316 310 312 313 313 312 312 312 312 312 312 312 311 311 306 307 307 309 309 306 305 304 303 306 308 307 307 310 311 312 315 316 314
309 310 312 314 313 311 311 312 314 314 315 315 317 318 319 313 311 314 313 312 309 310 310 312 312 311 311 306 305 309 311 310 310 308 306 305 303 307 306 306 311 309 312 311 312 315 313
309 310 313 314 313 312 310 310 311 312 315 315 315 315 318 315 315 314 312 312 313 310 308 310 311 310 309 303 305 306 303 306 303 310 309 303 307 307 306 306 309 310 309 311 312 311 310
309 310 313 314 314 313 312 310 309 310 314 314 314 315 316 317 318 316 316 314 313 313 307 311 308 307 304 303 300 299 299 301 304 307 308 305 308 306 309 307 309 308 310 312 308 307 307
309 310 312 314 314 314 314 313 310 309 310 310 313 315 315 316 317 317 316 317 316 312 313 311 309 309 307 300 298 296 307 304 299 300 304 305 305 302 307 306 309 308 308 308 307 305 305